Flag for U.S.A. Weather past 2 weeks in Odessa, Texas, U.S.A.

35 °F

Mostly cloudy.

Feels Like: 27 °F
Forecast: 33 / 41 °F
Wind: 12 mph from Northeast

Location: Odessa-Schlemeyer Field

Current Time: Nov 27, 2015 at 5:30:01 PM

Latest Report: Nov 27, 2015 at 3:53 PM

Visibility: 10 mi

Pressure: 30.25 "Hg (27.11 "Hg at 882m altitude)

Humidity: 88%

Dew point: 32 °F

Location of OdessaLocation

Historic Weather in Odessa — Graph


Odessa temperature yesterday

Maximum temperature yesterday: 70 °F (at 11:53 AM)
Minimum temperature yesterday: 63 °F (at 7:53 AM)
Average temperature yesterday: 66 °F

Past Weeks' High & Low Weather Summary

High76 °F (Nov 16, 2:53 PM)96% (Nov 25, 3:53 AM)30.43 "Hg (Nov 25, 3:53 AM)
Low28 °F (Nov 22, 6:53 AM)17% (Nov 22, 2:53 PM)29.38 "Hg (Nov 16, 7:53 PM)
Average53 °F59%29.99 "Hg
* Reported Nov 12 3:53 PM — Nov 27 3:53 PM, Odessa, Weather by CustomWeather, © 2015

Note: Actual official high and low records may vary slightly from our data, if they occured in-between our weather recording intervals... More about our weather records


Odessa weather history for previous 24 hours

Time TempWeatherWind HumidityBarometerVisibility
3:53 PM
Fri, Nov 27
35 °FMostly cloudy.12 mph88%30.25 "Hg10 mi
2:53 PM36 °FMostly cloudy.16 mph85%30.22 "Hg10 mi
1:53 PM35 °FLight rain. Mostly cloudy.16 mph88%30.23 "Hg7 mi
12:53 PM36 °FLight rain. Fog.17 mph92%30.23 "Hg2 mi
11:53 AM36 °FMostly cloudy.20 mph92%30.25 "Hg7 mi
11:02 AM36 °FLight snow. Fog.13 mph92%30.31 "Hg1 mi
9:53 AM37 °FLight rain. Fog.15 mph89%30.23 "Hg1 mi
8:53 AM37 °FLight rain. Fog.21 mph89%30.20 "Hg2 mi
7:53 AM38 °FFog.16 mph93%30.16 "Hg6 mi
6:53 AM39 °FLight rain. Fog.21 mph89%30.12 "Hg4 mi
5:53 AM40 °FLight rain. Low clouds.20 mph93%30.09 "Hg10 mi
4:53 AM43 °FLight rain. Low clouds.20 mph93%30.07 "Hg7 mi
3:53 AM45 °FLow clouds.17 mph93%30.04 "Hg10 mi
2:53 AM47 °FLight rain. Fog.20 mph90%30.03 "Hg6 mi
2:00 AM51 °FRain. Fog.18 mph92%30.10 "Hg4 mi
12:53 AM65 °FFog.9 mph91%29.96 "Hg6 mi
11:53 PM
Thu, Nov 26
64 °FRain. Fog.12 mph94%29.98 "Hg3 mi
10:53 PM64 °FLight rain. Fog.20 mph94%29.97 "Hg6 mi
9:53 PM64 °FFog.17 mph94%29.96 "Hg6 mi
8:53 PM64 °FFog.13 mph90%29.93 "Hg6 mi
7:53 PM65 °FLight rain. Fog.20 mph91%29.94 "Hg5 mi
6:53 PM65 °FLight rain. Low clouds.20 mph91%29.95 "Hg7 mi
5:53 PM66 °FMostly cloudy.17 mph87%29.91 "Hg8 mi
Weather by CustomWeather, © 2015

See weather overviewHow to use our weather pages